Time,TemperatureF,DewpointF,PressureIn,WindDirection,WindDirectionDegrees,WindSpeedMPH,WindSpeedGustMPH,Humidity,HourlyPrecipIn,Conditions,Clouds,dailyrainin,SoftwareType,DateUTC
2013-05-09 00:00:00,57.1,55.7,30.01,WNW,291,0.0,0.0,95,0.00,,,0.00,Wunderground v.1.15,2013-05-09 04:00:00,
2013-05-09 00:05:00,57.0,55.6,30.01,WNW,291,0.0,0.0,95,0.00,,,0.00,Wunderground v.1.15,2013-05-09 04:05:00,
2013-05-09 00:10:00,56.8,55.4,30.01,WNW,291,0.0,0.0,95,0.00,,,0.00,Wunderground v.1.15,2013-05-09 04:10:00,
2013-05-09 00:15:00,56.8,55.4,30.01,WNW,291,0.0,0.0,95,0.00,,,0.00,Wunderground v.1.15,2013-05-09 04:15:00,
2013-05-09 00:20:00,56.7,55.3,30.01,WNW,291,0.0,0.0,95,0.00,,,0.00,Wunderground v.1.15,2013-05-09 04:20:00,
2013-05-09 00:25:00,56.7,55.3,30.01,WNW,291,0.0,0.0,95,0.00,,,0.00,Wunderground v.1.15,2013-05-09 04:25:00,
2013-05-09 00:30:00,56.8,55.7,30.01,WNW,291,0.0,0.0,96,0.00,,,0.00,Wunderground v.1.15,2013-05-09 04:30:00,
2013-05-09 00:40:00,57.0,55.9,30.01,WNW,291,0.0,0.0,96,0.00,,,0.00,Wunderground v.1.15,2013-05-09 04:40:00,
2013-05-09 00:50:00,57.1,56.0,30.01,WNW,291,0.0,0.0,96,0.00,,,0.00,Wunderground v.1.15,2013-05-09 04:50:00,
2013-05-09 01:00:00,57.1,56.0,30.01,WNW,291,0.0,0.0,96,0.00,,,0.00,Wunderground v.1.15,2013-05-09 05:00:00,
2013-05-09 01:10:00,57.1,56.0,30.01,WNW,291,0.0,0.0,96,0.00,,,0.00,Wunderground v.1.15,2013-05-09 05:10:00,
2013-05-09 01:20:00,56.9,55.8,30.01,WNW,291,0.0,0.0,96,0.00,,,0.00,Wunderground v.1.15,2013-05-09 05:20:00,
2013-05-09 01:30:00,56.8,55.7,30.00,WNW,291,0.0,0.0,96,0.00,,,0.01,Wunderground v.1.15,2013-05-09 05:30:00,
2013-05-09 01:40:00,56.5,55.4,30.00,WNW,291,0.0,0.0,96,0.00,,,0.01,Wunderground v.1.15,2013-05-09 05:40:00,
2013-05-09 01:50:00,56.2,55.1,30.00,WNW,291,0.0,0.0,96,0.00,,,0.01,Wunderground v.1.15,2013-05-09 05:50:00,
2013-05-09 02:00:00,55.9,54.8,30.00,WNW,291,0.0,0.0,96,0.00,,,0.01,Wunderground v.1.15,2013-05-09 06:00:00,
2013-05-09 02:10:00,55.5,54.1,30.00,WNW,291,0.0,0.0,95,0.00,,,0.01,Wunderground v.1.15,2013-05-09 06:10:00,
2013-05-09 02:20:00,55.2,54.1,29.99,WNW,291,0.0,0.0,96,0.00,,,0.01,Wunderground v.1.15,2013-05-09 06:20:00,
2013-05-09 02:30:00,55.0,53.9,29.99,WNW,291,0.0,0.0,96,0.00,,,0.01,Wunderground v.1.15,2013-05-09 06:30:00,
2013-05-09 02:40:00,54.9,53.8,29.99,WNW,291,0.0,0.0,96,0.00,,,0.01,Wunderground v.1.15,2013-05-09 06:40:00,
2013-05-09 02:50:00,54.7,53.6,29.99,WNW,291,0.0,0.0,96,0.00,,,0.01,Wunderground v.1.15,2013-05-09 06:50:00,
2013-05-09 03:00:00,54.5,53.4,29.99,WNW,291,0.0,0.0,96,0.00,,,0.01,Wunderground v.1.15,2013-05-09 07:00:00,
2013-05-09 03:10:00,54.4,53.3,29.99,WNW,291,0.0,0.0,96,0.00,,,0.01,Wunderground v.1.15,2013-05-09 07:10:00,
2013-05-09 03:20:00,54.2,53.1,29.99,WNW,291,0.0,0.0,96,0.00,,,0.01,Wunderground v.1.15,2013-05-09 07:20:00,
2013-05-09 03:30:00,53.9,52.8,29.99,WNW,291,0.0,0.0,96,0.00,,,0.01,Wunderground v.1.15,2013-05-09 07:30:00,
2013-05-09 03:40:00,53.6,52.5,29.99,WNW,291,0.0,0.0,96,0.00,,,0.01,Wunderground v.1.15,2013-05-09 07:40:00,
2013-05-09 03:50:00,53.3,52.2,29.99,WNW,291,0.0,0.0,96,0.00,,,0.01,Wunderground v.1.15,2013-05-09 07:50:00,
2013-05-09 04:00:00,53.2,52.1,29.99,WNW,291,0.0,0.0,96,0.00,,,0.01,Wunderground v.1.15,2013-05-09 08:00:00,
2013-05-09 04:10:00,52.9,51.8,30.00,WNW,291,0.0,0.0,96,0.00,,,0.01,Wunderground v.1.15,2013-05-09 08:10:00,
2013-05-09 04:20:00,52.7,51.6,30.00,WNW,291,0.0,0.0,96,0.00,,,0.01,Wunderground v.1.15,2013-05-09 08:20:00,
2013-05-09 04:30:00,52.4,51.3,30.00,WNW,291,0.0,0.0,96,0.00,,,0.01,Wunderground v.1.15,2013-05-09 08:30:00,
2013-05-09 04:40:00,52.3,51.2,30.00,WNW,291,0.0,0.0,96,0.00,,,0.01,Wunderground v.1.15,2013-05-09 08:40:00,
2013-05-09 04:50:00,52.2,51.1,30.00,WNW,291,0.0,0.0,96,0.00,,,0.01,Wunderground v.1.15,2013-05-09 08:50:00,
2013-05-09 05:00:00,52.1,51.0,30.00,WNW,291,0.0,0.0,96,0.00,,,0.01,Wunderground v.1.15,2013-05-09 09:00:00,
2013-05-09 05:10:00,52.0,50.9,30.00,WNW,291,0.0,0.0,96,0.00,,,0.01,Wunderground v.1.15,2013-05-09 09:10:00,
2013-05-09 05:20:00,51.8,50.7,30.00,WNW,291,0.0,0.0,96,0.00,,,0.01,Wunderground v.1.15,2013-05-09 09:20:00,
2013-05-09 05:30:00,51.6,50.5,30.00,WNW,291,0.0,0.0,96,0.00,,,0.01,Wunderground v.1.15,2013-05-09 09:30:00,
2013-05-09 05:40:00,51.4,50.3,30.01,WNW,291,0.0,0.0,96,0.00,,,0.01,Wunderground v.1.15,2013-05-09 09:40:00,
2013-05-09 05:50:00,51.2,50.1,30.01,WNW,291,0.0,0.0,96,0.00,,,0.01,Wunderground v.1.15,2013-05-09 09:50:00,
2013-05-09 06:00:00,50.9,49.8,30.01,WNW,291,0.0,0.0,96,0.00,,,0.01,Wunderground v.1.15,2013-05-09 10:00:00,
2013-05-09 06:10:00,50.7,49.6,30.01,WNW,291,0.0,0.0,96,0.00,,,0.01,Wunderground v.1.15,2013-05-09 10:10:00,
2013-05-09 06:20:00,50.4,49.3,30.01,WNW,291,0.0,0.0,96,0.00,,,0.01,Wunderground v.1.15,2013-05-09 10:20:00,
2013-05-09 06:30:00,50.1,49.0,30.02,WNW,291,0.0,0.0,96,0.00,,,0.01,Wunderground v.1.15,2013-05-09 10:30:00,
2013-05-09 06:40:00,49.9,48.8,30.03,WNW,291,0.0,0.0,96,0.00,,,0.01,Wunderground v.1.15,2013-05-09 10:40:00,
2013-05-09 06:50:00,49.9,48.8,30.03,WNW,291,0.0,0.0,96,0.00,,,0.01,Wunderground v.1.15,2013-05-09 10:50:00,
2013-05-09 07:00:00,49.8,48.7,30.04,WNW,291,0.0,0.0,96,0.00,,,0.01,Wunderground v.1.15,2013-05-09 11:00:00,
2013-05-09 07:10:00,49.8,48.7,30.04,WNW,291,0.0,0.0,96,0.00,,,0.01,Wunderground v.1.15,2013-05-09 11:10:00,
2013-05-09 07:20:00,50.4,49.6,30.04,WNW,291,0.0,0.0,97,0.00,,,0.01,Wunderground v.1.15,2013-05-09 11:20:00,
2013-05-09 07:30:00,51.2,50.4,30.05,WNW,291,0.0,0.0,97,0.00,,,0.01,Wunderground v.1.15,2013-05-09 11:30:00,
2013-05-09 07:40:00,51.8,51.0,30.05,WNW,291,0.0,0.0,97,0.00,,,0.01,Wunderground v.1.15,2013-05-09 11:40:00,
2013-05-09 07:55:00,53.2,52.7,30.06,WNW,291,0.0,0.0,98,0.00,,,0.01,Wunderground v.1.15,2013-05-09 11:55:00,
2013-05-09 08:00:00,53.7,53.1,30.06,WSW,245,0.0,0.0,98,0.00,,,0.01,Wunderground v.1.15,2013-05-09 12:00:00,
2013-05-09 08:10:00,54.8,54.2,30.06,WSW,246,0.0,0.0,98,0.00,,,0.01,Wunderground v.1.15,2013-05-09 12:10:00,
2013-05-09 08:20:00,55.8,55.2,30.06,SE,130,0.0,0.0,98,0.00,,,0.01,Wunderground v.1.15,2013-05-09 12:20:00,
2013-05-09 08:30:00,56.5,55.9,30.06,SSW,204,0.0,0.0,98,0.00,,,0.01,Wunderground v.1.15,2013-05-09 12:30:00,
2013-05-09 08:40:00,57.4,56.8,30.06,South,186,0.0,0.0,98,0.00,,,0.01,Wunderground v.1.15,2013-05-09 12:40:00,
2013-05-09 08:50:00,58.1,57.5,30.06,WSW,246,0.0,0.0,98,0.00,,,0.01,Wunderground v.1.15,2013-05-09 12:50:00,
2013-05-09 09:00:00,58.7,58.1,30.06,NW,304,0.0,0.0,98,0.00,,,0.01,Wunderground v.1.15,2013-05-09 13:00:00,
2013-05-09 09:10:00,59.4,58.8,30.06,SSW,204,0.0,0.0,98,0.00,,,0.01,Wunderground v.1.15,2013-05-09 13:10:00,
2013-05-09 09:20:00,60.4,59.5,30.06,SW,220,0.0,0.0,97,0.00,,,0.01,Wunderground v.1.15,2013-05-09 13:20:00,
2013-05-09 09:30:00,61.5,59.2,30.06,SSE,164,0.0,0.0,92,0.00,,,0.01,Wunderground v.1.15,2013-05-09 13:30:00,
2013-05-09 09:40:00,63.2,59.6,30.06,SW,217,0.0,0.0,88,0.00,,,0.01,Wunderground v.1.15,2013-05-09 13:40:00,
2013-05-09 09:50:00,64.6,59.3,30.06,WSW,238,0.0,1.0,83,0.00,,,0.01,Wunderground v.1.15,2013-05-09 13:50:00,
2013-05-09 10:00:00,65.8,59.1,30.07,SW,230,0.0,0.0,79,0.00,,,0.01,Wunderground v.1.15,2013-05-09 14:00:00,
2013-05-09 10:10:00,67.1,60.4,30.07,WSW,257,0.0,0.0,79,0.00,,,0.01,Wunderground v.1.15,2013-05-09 14:10:00,
2013-05-09 10:20:00,68.3,60.1,30.07,South,172,0.0,5.0,75,0.00,,,0.01,Wunderground v.1.15,2013-05-09 14:20:00,
2013-05-09 10:30:00,69.2,60.2,30.07,West,271,1.0,1.0,73,0.00,,,0.01,Wunderground v.1.15,2013-05-09 14:30:00,
2013-05-09 10:40:00,69.9,60.5,30.07,WSW,240,0.0,0.0,72,0.00,,,0.01,Wunderground v.1.15,2013-05-09 14:40:00,
2013-05-09 10:50:00,71.1,59.2,30.07,South,182,1.0,1.0,66,0.00,,,0.01,Wunderground v.1.15,2013-05-09 14:50:00,
2013-05-09 11:00:00,71.9,58.6,30.07,SW,227,0.0,0.0,63,0.00,,,0.01,Wunderground v.1.15,2013-05-09 15:00:00,
2013-05-09 11:10:00,73.0,59.7,30.07,SSE,158,0.0,0.0,63,0.00,,,0.01,Wunderground v.1.15,2013-05-09 15:10:00,
2013-05-09 11:20:00,73.5,59.7,30.06,SW,236,0.0,0.0,62,0.00,,,0.01,Wunderground v.1.15,2013-05-09 15:20:00,
2013-05-09 11:30:00,73.9,59.6,30.06,SSW,211,1.0,1.0,61,0.00,,,0.01,Wunderground v.1.15,2013-05-09 15:30:00,
2013-05-09 11:40:00,74.2,59.9,30.06,SE,142,0.0,0.0,61,0.00,,,0.01,Wunderground v.1.15,2013-05-09 15:40:00,
2013-05-09 11:50:00,74.6,59.3,30.06,ENE,71,1.0,2.0,59,0.00,,,0.01,Wunderground v.1.15,2013-05-09 15:50:00,
2013-05-09 12:00:00,75.8,60.9,30.06,South,185,0.0,0.0,60,0.00,,,0.01,Wunderground v.1.15,2013-05-09 16:00:00,
2013-05-09 12:10:00,76.4,62.0,30.06,NNW,332,0.0,0.0,61,0.00,,,0.01,Wunderground v.1.15,2013-05-09 16:10:00,
2013-05-09 12:20:00,76.5,60.1,30.06,WSW,252,1.0,1.0,57,0.00,,,0.01,Wunderground v.1.15,2013-05-09 16:20:00,
2013-05-09 12:30:00,76.6,58.7,30.06,NW,322,0.0,0.0,54,0.00,,,0.01,Wunderground v.1.15,2013-05-09 16:30:00,
2013-05-09 12:40:00,77.0,58.6,30.06,NW,304,0.0,0.0,53,0.00,,,0.01,Wunderground v.1.15,2013-05-09 16:40:00,
2013-05-09 12:50:00,77.3,59.4,30.05,WNW,293,0.0,0.0,54,0.00,,,0.01,Wunderground v.1.15,2013-05-09 16:50:00,
2013-05-09 13:00:00,78.2,59.7,30.05,WSW,237,0.0,1.0,53,0.00,,,0.01,Wunderground v.1.15,2013-05-09 17:00:00,
2013-05-09 13:10:00,78.5,60.5,30.05,SSE,157,0.0,0.0,54,0.00,,,0.01,Wunderground v.1.15,2013-05-09 17:10:00,
2013-05-09 13:20:00,78.4,59.3,30.05,South,188,0.0,1.0,52,0.00,,,0.01,Wunderground v.1.15,2013-05-09 17:20:00,
2013-05-09 13:30:00,78.6,60.6,30.05,SW,227,1.0,1.0,54,0.00,,,0.01,Wunderground v.1.15,2013-05-09 17:30:00,
2013-05-09 13:40:00,77.8,61.3,30.05,WSW,251,0.0,0.0,57,0.00,,,0.01,Wunderground v.1.15,2013-05-09 17:40:00,
2013-05-09 13:50:00,78.2,59.7,30.05,SSW,213,0.0,0.0,53,0.00,,,0.01,Wunderground v.1.15,2013-05-09 17:50:00,
2013-05-09 14:00:00,78.4,60.9,30.05,South,184,0.0,0.0,55,0.00,,,0.01,Wunderground v.1.15,2013-05-09 18:00:00,
2013-05-09 14:10:00,79.0,60.4,30.05,NW,313,1.0,1.0,53,0.00,,,0.01,Wunderground v.1.15,2013-05-09 18:10:00,
2013-05-09 14:20:00,79.2,60.1,30.04,North,11,0.0,0.0,52,0.00,,,0.01,Wunderground v.1.15,2013-05-09 18:20:00,
2013-05-09 14:30:00,79.2,58.4,30.04,WSW,245,0.0,0.0,49,0.00,,,0.01,Wunderground v.1.15,2013-05-09 18:30:00,
2013-05-09 14:40:00,79.3,59.6,30.04,SW,225,0.0,1.0,51,0.00,,,0.01,Wunderground v.1.15,2013-05-09 18:40:00,
2013-05-09 14:50:00,80.5,60.7,30.04,NNW,336,0.0,0.0,51,0.00,,,0.01,Wunderground v.1.15,2013-05-09 18:50:00,
2013-05-09 15:00:00,80.7,58.6,30.03,West,277,0.0,0.0,47,0.00,,,0.01,Wunderground v.1.15,2013-05-09 19:00:00,
2013-05-09 15:10:00,79.9,60.2,30.03,NNW,329,0.0,0.0,51,0.00,,,0.01,Wunderground v.1.15,2013-05-09 19:10:00,
2013-05-09 15:20:00,80.2,59.3,30.03,WSW,248,0.0,1.0,49,0.00,,,0.01,Wunderground v.1.15,2013-05-09 19:20:00,
2013-05-09 15:30:00,80.5,60.1,30.03,SW,217,0.0,1.0,50,0.00,,,0.01,Wunderground v.1.15,2013-05-09 19:30:00,
2013-05-09 15:40:00,80.3,58.2,30.03,NW,322,0.0,0.0,47,0.00,,,0.01,Wunderground v.1.15,2013-05-09 19:40:00,
2013-05-09 15:50:00,80.4,59.5,30.03,SSW,202,0.0,0.0,49,0.00,,,0.01,Wunderground v.1.15,2013-05-09 19:50:00,
2013-05-09 16:00:00,79.9,58.5,30.02,West,274,0.0,0.0,48,0.00,,,0.01,Wunderground v.1.15,2013-05-09 20:00:00,
2013-05-09 16:10:00,79.8,60.1,30.02,West,273,0.0,0.0,51,0.00,,,0.01,Wunderground v.1.15,2013-05-09 20:10:00,
2013-05-09 16:20:00,79.6,59.9,30.02,SSE,159,0.0,0.0,51,0.00,,,0.01,Wunderground v.1.15,2013-05-09 20:20:00,
2013-05-09 16:30:00,79.7,61.1,30.02,NW,320,0.0,0.0,53,0.00,,,0.01,Wunderground v.1.15,2013-05-09 20:30:00,
2013-05-09 16:40:00,80.0,60.8,30.02,North,355,0.0,0.0,52,0.00,,,0.01,Wunderground v.1.15,2013-05-09 20:40:00,
2013-05-09 16:50:00,80.5,59.0,30.01,SW,218,0.0,1.0,48,0.00,,,0.01,Wunderground v.1.15,2013-05-09 20:50:00,
2013-05-09 17:00:00,80.9,59.9,30.01,NNW,347,0.0,0.0,49,0.00,,,0.01,Wunderground v.1.15,2013-05-09 21:00:00,
2013-05-09 17:10:00,81.4,58.0,30.01,North,355,0.0,0.0,45,0.00,,,0.01,Wunderground v.1.15,2013-05-09 21:10:00,
2013-05-09 17:20:00,81.7,58.3,30.01,North,360,0.0,0.0,45,0.00,,,0.01,Wunderground v.1.15,2013-05-09 21:20:00,
2013-05-09 17:30:00,81.4,57.4,30.01,North,360,0.0,0.0,44,0.00,,,0.01,Wunderground v.1.15,2013-05-09 21:30:00,
2013-05-09 17:40:00,80.6,58.5,30.01,NW,317,0.0,0.0,47,0.00,,,0.01,Wunderground v.1.15,2013-05-09 21:40:00,
2013-05-09 17:50:00,79.9,59.6,30.01,NW,317,0.0,0.0,50,0.00,,,0.01,Wunderground v.1.15,2013-05-09 21:50:00,
2013-05-09 18:00:00,80.0,59.7,30.01,NW,317,0.0,0.0,50,0.00,,,0.01,Wunderground v.1.15,2013-05-09 22:00:00,
2013-05-09 18:10:00,80.0,59.1,30.01,NW,316,0.0,0.0,49,0.00,,,0.01,Wunderground v.1.15,2013-05-09 22:10:00,
2013-05-09 18:20:00,79.3,61.2,30.01,NW,316,0.0,0.0,54,0.00,,,0.01,Wunderground v.1.15,2013-05-09 22:20:00,
2013-05-09 18:30:00,78.1,60.1,30.01,NW,316,0.0,0.0,54,0.00,,,0.01,Wunderground v.1.15,2013-05-09 22:30:00,
2013-05-09 18:40:00,76.8,60.4,30.01,NW,316,0.0,0.0,57,0.00,,,0.01,Wunderground v.1.15,2013-05-09 22:40:00,
2013-05-09 18:50:00,75.8,61.8,30.01,NW,316,0.0,0.0,62,0.00,,,0.01,Wunderground v.1.15,2013-05-09 22:50:00,
2013-05-09 19:00:00,74.6,60.7,30.01,NW,316,0.0,0.0,62,0.00,,,0.01,Wunderground v.1.15,2013-05-09 23:00:00,
2013-05-09 19:10:00,74.0,61.5,30.01,NW,316,0.0,0.0,65,0.00,,,0.01,Wunderground v.1.15,2013-05-09 23:10:00,
2013-05-09 19:20:00,73.6,62.0,30.01,NW,316,0.0,0.0,67,0.00,,,0.01,Wunderground v.1.15,2013-05-09 23:20:00,
2013-05-09 19:30:00,72.9,61.7,30.01,NW,316,0.0,0.0,68,0.00,,,0.01,Wunderground v.1.15,2013-05-09 23:30:00,
2013-05-09 19:40:00,72.0,61.7,30.02,NW,316,0.0,0.0,70,0.00,,,0.01,Wunderground v.1.15,2013-05-09 23:40:00,
2013-05-09 19:50:00,71.1,62.4,30.02,NW,316,0.0,0.0,74,0.00,,,0.01,Wunderground v.1.15,2013-05-09 23:50:00,
2013-05-09 20:00:00,70.0,62.1,30.02,NW,316,0.0,0.0,76,0.00,,,0.01,Wunderground v.1.15,2013-05-10 00:00:00,
2013-05-09 20:10:00,68.9,60.6,30.02,NW,316,0.0,0.0,75,0.00,,,0.01,Wunderground v.1.15,2013-05-10 00:10:00,
2013-05-09 20:20:00,67.9,61.1,30.03,NW,316,0.0,0.0,79,0.00,,,0.01,Wunderground v.1.15,2013-05-10 00:20:00,
2013-05-09 20:30:00,67.2,61.2,30.03,NW,316,0.0,0.0,81,0.00,,,0.01,Wunderground v.1.15,2013-05-10 00:30:00,
2013-05-09 20:40:00,66.4,60.4,30.04,NW,316,0.0,0.0,81,0.00,,,0.01,Wunderground v.1.15,2013-05-10 00:40:00,
2013-05-09 20:50:00,65.7,60.7,30.04,NW,316,0.0,0.0,84,0.00,,,0.01,Wunderground v.1.15,2013-05-10 00:50:00,
2013-05-09 21:00:00,65.1,60.5,30.05,NW,316,0.0,0.0,85,0.00,,,0.01,Wunderground v.1.15,2013-05-10 01:00:00,
2013-05-09 21:10:00,64.5,60.2,30.04,NW,316,0.0,0.0,86,0.00,,,0.01,Wunderground v.1.15,2013-05-10 01:10:00,
2013-05-09 21:20:00,64.0,59.7,30.05,NW,316,0.0,0.0,86,0.00,,,0.01,Wunderground v.1.15,2013-05-10 01:20:00,
2013-05-09 21:30:00,63.6,59.3,30.06,NW,316,0.0,0.0,86,0.00,,,0.01,Wunderground v.1.15,2013-05-10 01:30:00,
2013-05-09 21:40:00,63.3,59.4,30.06,NW,316,0.0,0.0,87,0.00,,,0.01,Wunderground v.1.15,2013-05-10 01:40:00,
2013-05-09 21:50:00,63.0,59.1,30.06,NW,316,0.0,0.0,87,0.00,,,0.01,Wunderground v.1.15,2013-05-10 01:50:00,
2013-05-09 22:00:00,62.8,59.2,30.06,NW,316,0.0,0.0,88,0.00,,,0.01,Wunderground v.1.15,2013-05-10 02:00:00,
2013-05-09 22:10:00,62.5,58.9,30.06,NW,316,0.0,0.0,88,0.00,,,0.01,Wunderground v.1.15,2013-05-10 02:10:00,
2013-05-09 22:20:00,62.2,58.6,30.06,NW,316,0.0,0.0,88,0.00,,,0.01,Wunderground v.1.15,2013-05-10 02:20:00,
2013-05-09 22:30:00,62.1,58.5,30.06,NW,316,0.0,0.0,88,0.00,,,0.01,Wunderground v.1.15,2013-05-10 02:30:00,
2013-05-09 22:40:00,62.0,58.1,30.06,NW,316,0.0,0.0,87,0.00,,,0.01,Wunderground v.1.15,2013-05-10 02:40:00,
2013-05-09 22:50:00,62.0,58.1,30.07,NW,316,0.0,0.0,87,0.00,,,0.01,Wunderground v.1.15,2013-05-10 02:50:00,
2013-05-09 23:00:00,62.0,58.1,30.06,NW,316,0.0,0.0,87,0.00,,,0.01,Wunderground v.1.15,2013-05-10 03:00:00,
2013-05-09 23:10:00,61.9,58.0,30.06,NW,316,0.0,0.0,87,0.00,,,0.01,Wunderground v.1.15,2013-05-10 03:10:00,
2013-05-09 23:20:00,61.8,57.9,30.06,NW,316,0.0,0.0,87,0.00,,,0.01,Wunderground v.1.15,2013-05-10 03:20:00,
2013-05-09 23:30:00,61.8,58.2,30.06,NW,316,0.0,0.0,88,0.00,,,0.01,Wunderground v.1.15,2013-05-10 03:30:00,
2013-05-09 23:40:00,61.8,57.9,30.06,NW,316,0.0,0.0,87,0.00,,,0.01,Wunderground v.1.15,2013-05-10 03:40:00,
2013-05-09 23:50:00,61.8,57.9,30.06,NW,316,0.0,0.0,87,0.00,,,0.01,Wunderground v.1.15,2013-05-10 03:50:00,